Overview Statistics Trail Chart Weather Telemetry Raw packets
 

This is the latest recevied weather packets stored in our database for station/object KQ7A. If no packets are shown the sender has not sent any weather packets the latest 10 day(s).

<< 1 2 3 4 >>
Time Temp. Humidity Pressure Rain* Wind** Luminosity Snow
1788680926 17.78° C 35% 1017.3 hPa 0 mm - 0 W/m² -
1788680620 17.78° C 34% 1017.3 hPa 0 mm - 0 W/m² -
1788680319 17.78° C 34% 1017.1 hPa 0 mm - 0 W/m² -
1788680014 17.78° C 36% 1017.1 hPa 0 mm - 0 W/m² -
1788679711 17.22° C 34% 1017.1 hPa 0 mm - 0 W/m² -
1788679406 17.22° C 37% 1016.8 hPa 0 mm - 0 W/m² -
1788679102 17.78° C 35% 1016.9 hPa 0 mm - 0 W/m² -
1788678802 17.22° C 35% 1017.1 hPa 0 mm - 0 W/m² -
1788678498 17.22° C 37% 1017 hPa 0 mm - 0 W/m² -
1788678194 17.22° C 36% 1016.9 hPa 0 mm - 0 W/m² -
1788677888 17.78° C 34% 1017 hPa 0 mm - 0 W/m² -
1788677584 17.22° C 36% 1017 hPa 0 mm - 0 W/m² -
1788677279 17.78° C 35% 1016.9 hPa 0 mm - 0 W/m² -
1788676975 17.78° C 34% 1017.3 hPa 0 mm - 0 W/m² -
1788676669 17.78° C 33% 1017.3 hPa 0 mm - 0 W/m² -
1788676365 17.78° C 34% 1017 hPa 0 mm - 0 W/m² -
1788676060 17.22° C 34% 1017.3 hPa 0 mm - 0 W/m² -
1788675759 17.22° C 34% 1016.9 hPa 0 mm - 0 W/m² -
1788675455 17.78° C 34% 1016.8 hPa 0 mm - 0 W/m² -
1788675151 17.22° C 35% 1016.9 hPa 0 mm - 0 W/m² -
1788674846 17.78° C 33% 1016.9 hPa 0 mm - 0 W/m² -
1788674544 16.67° C 38% 1017.1 hPa 0 mm - 0 W/m² -
1788674239 16.67° C 38% 1017 hPa 0 mm - 0 W/m² -
1788673935 17.22° C 37% 1017 hPa 0 mm - 0 W/m² -
1788673630 16.11° C 34% 1017 hPa 0 mm - 0 W/m² -

* Rain latest hour (hover to see other rain measurements)
** Current wind speed in m/s (hover to see current wind gust speed)